ARIANE 2 DEB, 27043

Orbit data source: Space-Track

ARIANE 2 DEB, 27043 is space debris in HEO originally from a launch on Fri, 27 Jan 1989 UTC launched from the French Guiana (FRGUI). Debris objects in space refer to the collection of defunct objects orbiting the Earth. Examples of debris include non-operational satellites, rocket bodies, and fragments generated from explosions, collisions, or faulty payload assembly.

Loading next visibility...
Identifier
27043, 1989-006Y
Orbit
HEO
Country
Flag of FRFR
Related business
Manufacturer
EADS/LV
Mission
Spacecraft
Bus & Motor
Unknown
Mass
Unknown
Launch date (UTC)
1989-01-27 (37 years ago)
Launch vehicle
Unknown
Launch site
French Guiana (FRGUI)
Object type
Payload
Rocket body
Debris
Shape & HBR
Unknown shape, 0.3 m
Radar Cross Section
Medium (>0.1 m² and <1 m²)

Expand to show TLE details & history
Last TLE update: 16 hours ago

TLE from 16 hours ago
0 ARIANE 2 DEB
1 27043U 89006Y   25349.63214644 -.00000161  00000-0  13913-2 0  9990
2 27043   8.5932 344.0879 7131312 272.9586  95.4978  2.25090403200387
Epoch: 2025-12-15T15:10Z
TLE epoch observation values (Epoch: 2025-12-15T15:10:17.452Z)
Latitude
8.10522°
Longitude
102.11802°
Altitude
28,981.357 km
Speed
2.518 km/s
True Right ascension
03h 36m 52s
True Declination
8° 05' 44"
Sunlit
Object was in daylight at epoch
Visualization orbit readout
Latitude
Unknown
Longitude
Unknown
Altitude
Unknown
Speed
Unknown
Apparent Right ascension
Unknown
Apparent Declination
Unknown
Sunlit
N/A
Visualization observer readout
Local Sidereal Time
05:39:22
Azimuth
Unknown
Elevation
Unknown
Doppler factor
Unknown
Orbital elements
Apogee altitude
35,763.377 km
Perigee altitude
678.582 km
Semi-major axis
24,599.116 km
Eccentricity
0.71313
Inclination
8.5932°
RAAN
344.0879°
Arg. of periapsis
272.9586°
True anomaly
157.32261°
Mean anomaly
95.4978°
Eccentric anomaly
127.78822°
Mean motion
0.56255 °/min
Orbital period
639.94 mins
BSTAR
0.0013913
Loading maneuver chart data...
Computing Atmospheric mass density...
Loading historical data...
Loading historical data...
Loading historical data...
Loading historical data...
Loading historical data...
Loading historical data...
Loading historical data...

Documentation

Showing up to 5 results
|